Location: M�nchen
(48.1404°N, 11.6043°E)
Time: 15:51:53
(UTC+02:00)

nSIGHT-1 - Visible Passes

Search period start: 21 July 2018 00:00
Search period end: 31 July 2018 00:00
Orbit: 378 x 385 km, 51.6° (Epoch: 21 July)

Date Brightness Start Highest point End Pass type
(mag) Time Alt. Az. Time Alt. Az. Time Alt. Az.
21 Jul ? 00:05:03 10° WNW 00:08:04 42° N 00:11:05 10° ENE visible
21 Jul ? 01:41:14 10° WNW 01:44:00 54° NNW 01:44:00 54° NNW visible
21 Jul ? 23:05:21 10° W 23:08:24 49° NNW 23:11:29 10° ENE visible
22 Jul ? 00:41:40 10° WNW 00:44:44 45° N 00:45:35 34° NE visible
22 Jul ? 02:17:41 10° WNW 02:17:43 10° WNW 02:17:43 10° WNW visible
22 Jul ? 22:05:40 10° WSW 22:08:48 69° NNW 22:11:55 10° ENE visible
22 Jul ? 23:42:02 10° WNW 23:45:02 41° N 23:47:35 13° ENE visible
23 Jul ? 01:18:08 10° WNW 01:19:44 27° WNW 01:19:44 27° WNW visible
23 Jul ? 22:42:20 10° W 22:45:20 43° N 22:48:22 10° ENE visible
24 Jul ? 00:18:33 10° WNW 00:21:39 53° NNE 00:21:53 51° NE visible
24 Jul ? 21:42:35 10° W 21:45:40 54° NNW 21:48:45 10° ENE visible
24 Jul ? 23:18:56 10° WNW 23:21:58 43° N 23:24:07 17° ENE visible
25 Jul ? 00:54:58 10° WNW 00:56:16 23° WNW 00:56:16 23° WNW visible
25 Jul ? 22:19:14 10° WNW 22:22:14 41° N 22:25:14 10° ENE visible
25 Jul ? 23:55:22 10° WNW 23:58:29 68° NNE 23:58:32 68° NNE visible
26 Jul ? 22:55:45 10° WNW 22:58:49 49° NNE 23:00:49 19° E visible
27 Jul ? 00:31:46 10° WNW 00:32:58 21° W 00:32:58 21° W visible
27 Jul ? 21:56:04 10° WNW 21:59:05 42° N 22:02:05 10° ENE visible
27 Jul ? 23:32:07 10° WNW 23:35:15 88° SSW 23:35:17 87° SSE visible
28 Jul ? 22:32:29 10° WNW 22:35:36 60° NNE 22:37:38 19° E visible
29 Jul ? 00:08:36 10° W 00:09:47 19° W 00:09:47 19° W visible
29 Jul ? 21:32:49 10° WNW 21:35:51 45° N 21:38:53 10° E visible
29 Jul ? 23:08:49 10° WNW 23:11:55 61° SSW 23:12:08 58° S visible
30 Jul ? 22:09:08 10° WNW 22:12:17 79° NNE 22:14:30 18° ESE visible
30 Jul ? 23:45:31 10° W 23:46:40 17° WSW 23:46:40 17° WSW visible
